This demonstration page uses our WeatherBlox Daily Observations layout. Learn more.

Left ArrowRight Arrow

40.92945, -100.16068

Hourly Observations for April 19, 2021

Temp ( °F °C ) Dew Point ( °F °C ) Humidity (%) Winds ( mph kmh ) Pressure ( in mb ) Visibility ( mi km ) Precip ( " mm )
12:15 am 00:15 Partly Cloudy 47 8.6 37 2.7 67 67 NE 16 26 29.98 1015 10 16 0.00 0.00
12:35 am 00:35 Clear 46 7.8 37 2.7 70 70 NE 14 22 30.00 1016 10 16 0.00 0.00
12:55 am 00:55 Clear 44 6.5 37 3 79 79 NE 10 17 30.02 1017 10 16 0.00 0.00
1:15 am 01:15 Clear 43 6.2 36 2.4 77 77 NNE 17 28 30.03 1017 10 16 0.00 0.00
1:35 am 01:35 Clear 41 5.2 36 2.1 81 81 NE 12 19 30.04 1017 10 16 0.00 0.00
1:55 am 01:55 Clear 40 4.6 35 1.7 82 82 NE 14 22 30.04 1017 10 16 0.00 0.00
2:15 am 02:15 Clear 39 4 34 1.3 83 83 NNE 13 20 30.07 1018 10 16 0.00 0.00
2:35 am 02:35 Clear 38 3.5 34 1 84 84 NE 12 19 30.07 1018 10 16 0.00 0.00
2:55 am 02:55 Partly Cloudy 37 2.9 34 1 87 87 NNE 10 17 30.08 1019 10 16 0.00 0.00
3:15 am 03:15 Mostly Cloudy 37 2.7 33 0.5 86 86 NNE 15 24 30.08 1019 10 16 0.00 0.00
3:35 am 03:35 Partly Cloudy 36 2.1 32 0 86 86 NE 13 20 30.09 1019 10 16 0.00 0.00
3:55 am 03:55 Partly Cloudy 35 1.7 32 -0.2 87 87 NE 14 22 30.11 1020 10 16 0.00 0.00
4:15 am 04:15 Mostly Cloudy 35 1.5 31 -0.3 88 88 NE 13 20 30.12 1020 10 16 0.00 0.00
4:35 am 04:35 Cloudy 35 1.5 31 -0.5 87 87 NE 13 20 30.12 1020 10 16 0.00 0.00
4:55 am 04:55 Cloudy 35 1.6 31 -0.5 86 86 NNE 10 17 30.13 1020 10 16 0.00 0.00
5:15 am 05:15 Cloudy 35 1.5 31 -0.7 85 85 NNE 15 24 30.13 1020 10 16 0.00 0.00
5:35 am 05:35 Cloudy 34 1 29 -1.4 84 84 NNE 16 26 30.15 1021 10 16 0.00 0.00
5:55 am 05:55 Cloudy 33 0.8 29 -1.5 85 85 NNE 16 26 30.15 1021 10 16 0.00 0.00
6:15 am 06:15 Cloudy 33 0.5 28 -2.1 83 83 NNE 15 24 30.16 1021 10 16 0.00 0.00
6:35 am 06:35 Cloudy 32 0 27 -3 80 80 N 22 35 30.18 1022 10 16 0.00 0.00
6:55 am 06:55 Cloudy 32 0 26 -3.2 79 79 NNE 17 28 30.19 1022 10 16 0.00 0.00
7:15 am 07:15 Cloudy 31 -0.5 26 -3.5 80 80 NNE 20 31 30.20 1023 10 16 0.00 0.00
7:35 am 07:35 Cloudy 31 -0.5 26 -3.5 80 80 N 18 30 30.22 1023 10 16 0.00 0.00
7:55 am 07:55 Cloudy 31 -0.5 25 -4.1 77 77 N 18 30 30.23 1024 10 16 0.00 0.00
8:15 am 08:15 Cloudy 31 -0.7 22 -5.4 71 71 NNE 24 39 30.24 1024 10 16 0.00 0.00
8:35 am 08:35 Cloudy 31 -0.8 23 -5 74 74 NNE 18 30 30.26 1025 10 16 0.00 0.00
8:55 am 08:55 Cloudy 31 -0.8 24 -4.7 75 75 NNE 21 33 30.26 1025 10 16 0.00 0.00
9:15 am 09:15 Cloudy 31 -0.8 24 -4.7 75 75 N 18 30 30.26 1025 10 16 0.00 0.00
9:35 am 09:35 Cloudy 30 -0.9 22 -5.3 72 72 NNE 20 31 30.27 1025 10 16 0.00 0.00
9:55 am 09:55 Cloudy 31 -0.8 22 -5.5 71 71 NNE 20 31 30.26 1025 10 16 0.00 0.00
10:15 am 10:15 Cloudy 30 -1.1 22 -5.8 71 71 NNE 18 30 30.27 1025 10 16 0.00 0.00
10:35 am 10:35 Cloudy 31 -0.7 22 -5.3 71 71 NNE 18 30 30.27 1025 10 16 0.00 0.00
10:55 am 10:55 Cloudy 31 -0.6 23 -4.9 73 73 NNE 15 24 30.27 1025 10 16 0.00 0.00
11:15 am 11:15 Cloudy 31 -0.8 23 -4.9 74 74 N 18 30 30.28 1025 10 16 0.00 0.00
11:35 am 11:35 Cloudy 31 -0.5 24 -4.5 75 75 N 16 26 30.26 1025 10 16 0.00 0.00
11:55 am 11:55 Cloudy 32 0 23 -4.9 70 70 NNE 20 31 30.26 1025 10 16 0.00 0.00
12:15 pm 12:15 Cloudy 32 -0.2 23 -5.1 70 70 NNE 18 30 30.27 1025 10 16 0.00 0.00
12:35 pm 12:35 Cloudy with Light Snow 31 -0.7 26 -3.6 81 81 N 16 26 30.28 1026 3 5 0.00 0.00
12:55 pm 12:55 Cloudy with Light Snow 31 -0.5 27 -2.7 85 85 NNE 16 26 30.27 1025 3 4 0.00 0.00
1:15 pm 13:15 Cloudy with Light Snow 32 0 28 -2.2 85 85 NNE 15 24 30.26 1025 3 5 0.00 0.00
1:35 pm 13:35 Cloudy with Light Snow 31 -0.4 28 -2.4 87 87 N 13 20 30.26 1025 2 3 0.00 0.00
1:55 pm 13:55 Windy with Snow Likely 31 -0.6 27 -2.8 85 85 N 24 39 30.27 1025 1 2 0.00 0.00
2:15 pm 14:15 Cloudy with Light Snow 30 -1.1 27 -2.8 88 88 N 16 26 30.28 1025 1 2 0.00 0.00
2:35 pm 14:35 Cloudy with Light Snow 30 -0.9 27 -2.6 88 88 NNE 16 26 30.28 1025 1 2 0.00 0.00
2:55 pm 14:55 Cloudy with Light Snow 31 -0.5 28 -2.5 87 87 N 16 26 30.28 1025 1 2 0.00 0.00
3:15 pm 15:15 Cloudy with Light Snow 32 0 28 -2 87 87 N 15 24 30.28 1025 2 3 0.00 0.00
3:35 pm 15:35 Cloudy with Light Snow 32 0.1 28 -2.1 85 85 N 15 24 30.28 1025 4 6 0.00 0.00
3:55 pm 15:55 Cloudy 33 0.7 27 -2.6 79 79 N 20 31 30.26 1025 10 16 0.00 0.00
4:15 pm 16:15 Cloudy with Light Snow 33 0.4 27 -2.6 81 81 N 15 24 30.26 1025 7 11 0.00 0.00
4:35 pm 16:35 Cloudy 34 1.1 27 -2.7 76 76 N 16 26 30.25 1024 10 16 0.00 0.00
4:55 pm 16:55 Cloudy 34 1 25 -4 70 70 N 16 26 30.24 1024 10 16 0.00 0.00
5:15 pm 17:15 Cloudy 34 1.2 25 -4.1 68 68 N 16 26 30.23 1024 10 16 0.00 0.00
5:35 pm 17:35 Cloudy 34 1.2 24 -4.2 68 68 NNE 18 30 30.24 1024 10 16 0.00 0.00
5:55 pm 17:55 Cloudy 34 1.1 24 -4.3 68 68 NNE 15 24 30.24 1024 10 16 0.00 0.00
6:15 pm 18:15 Cloudy 34 1.3 24 -4.4 66 66 N 16 26 30.23 1024 10 16 0.00 0.00
6:35 pm 18:35 Cloudy 34 0.9 25 -3.7 72 72 N 20 31 30.25 1024 10 16 0.00 0.00
6:55 pm 18:55 Windy with Snow Likely 31 -0.5 27 -3 83 83 NNE 20 31 30.27 1025 5 8 0.00 0.00
7:15 pm 19:15 Cloudy with Light Snow 30 -1 26 -3.6 83 83 N 15 24 30.28 1025 3 4 0.00 0.00
7:35 pm 19:35 Cloudy with Light Snow 30 -1.2 27 -3 88 88 N 14 22 30.29 1026 2 3 0.00 0.00
7:55 pm 19:55 Cloudy with Light Snow 30 -1 26 -3.1 86 86 N 8 13 30.29 1026 4 6 0.00 0.00
8:15 pm 20:15 Cloudy with Light Snow 30 -1.2 27 -2.8 89 89 N 7 11 30.28 1025 3 5 0.00 0.00
8:35 pm 20:35 Cloudy with Light Snow 30 -1 28 -2.5 90 90 NNW 8 13 30.29 1026 7 11 0.00 0.00
8:55 pm 20:55 Cloudy with Light Snow 30 -1.2 27 -2.6 90 90 NW 7 11 30.30 1026 5 8 0.00 0.00
9:15 pm 21:15 Cloudy with Light Snow 30 -1 28 -2.4 90 90 NW 10 17 30.33 1027 2 3 0.00 0.00
9:35 pm 21:35 Cloudy with Snow 30 -1.3 28 -2.3 93 93 NW 8 13 30.33 1027 1 2 0.00 0.00
9:55 pm 21:55 Cloudy with Light Snow 30 -1.3 28 -2.2 94 94 NW 8 13 30.32 1027 2 2 0.00 0.00
10:15 pm 22:15 Cloudy with Light Snow 30 -1.2 28 -2.1 94 94 WNW 8 13 30.34 1027 3 4 0.00 0.00
10:35 pm 22:35 Cloudy with Light Snow 30 -1.1 28 -2.4 91 91 NW 9 15 30.35 1028 2 3 0.00 0.00
10:55 pm 22:55 Cloudy with Light Snow 29 -1.5 26 -3.1 89 89 NNW 9 15 30.35 1028 3 5 0.00 0.00
11:15 pm 23:15 Cloudy with Light Snow 29 -1.5 26 -3.3 88 88 NNW 7 11 30.36 1028 7 11 0.00 0.00
11:35 pm 23:35 Cloudy 29 -1.5 26 -3.5 86 86 Calm 30.34 1028 10 16 0.00 0.00
11:55 pm 23:55 Cloudy 29 -1.7 26 -3.5 88 88 WNW 3 6 30.32 1027 10 16 0.00 0.00

Powered by AerisWeather